Regional Weather Roundup
Issued by NWS

Home | Current Version | Previous Version | Text Only | Print | Product List | Glossary On
Versions: 1 2 3 4 5 6 7 8 9 10 11 12 13 14 15 16 17 18 19 20 21 22 23 24 25 26 27 28 29 30 31 32 33 34 35 36 37 38 39 40 41 42 43 44 45 46 47 48 49 50
000
ASUS42 KTBW 112316
RWRFL
FLORIDA REGIONAL WEATHER ROUNDUP
NATIONAL WEATHER SERVICE TAMPA BAY RUSKIN FL
600 PM EST MON DEC 11 2017

NOTE: "FAIR" INDICATES FEW OR NO CLOUDS BELOW 12,000 FEET WITH NO
SIGNIFICANT WEATHER AND/OR OBSTRUCTIONS TO VISIBILITY.

FLZ001>010-012>015-112-114-115-120000-
PANHANDLE FLORIDA

CITY           SKY/WX    TMP DP  RH WIND       PRES   REMARKS
PENSACOLA      CLEAR     57  42  57 SW7       30.13F
PENSACOLA NAS  PTCLDY    56  44  64 SW6       30.13F
MILTON NAS     CLOUDY    55  39  54 S9        30.12F
CRESTVIEW      CLEAR     55  38  52 SW5       30.13F
DUKE FIELD     PTCLDY    56  42  59 S7        30.12F
VALPARAISO     PTCLDY    58  42  55 W6        30.12F
MARY ESTHER    PTCLDY    58  46  64 W8        30.12F
PANAMA CITY    FAIR      58  45  62 SW5       30.13F
TYNDALL AFB    CLEAR     59  45  60 W9        30.14F
APALACHICOLA   CLEAR     56  52  86 SW3       30.16F

STATION/POSITION SKY/WX   TEMP    WIND        PRES    WAVE   SWELL
                          AIR SEA DIR/SP/G            HT/PER HT/PER
                          (F)     (DEG/KT/KT) (MB)    (FT/S) (FT/S)
29.2N   88.2W              62 74  250/ 14/ 16 1021.8
28.8N   86.0W              65 74  270/ 10/ 14 1021.2F   2/ 4   2/ 5
PANAMA CITY BEAC           62 63  260/ 15/ 16 1020.9F
TOWER C                    59     240/  8/  8 1021.9F

$$
FLZ011-016>038-118-127-128-134-139-239-120000-
NORTH FLORIDA

CITY           SKY/WX    TMP DP  RH WIND       PRES   REMARKS
MARIANNA       CLEAR     56  32  40 SW6       30.11F
TALLAHASSEE    PTCLDY    54  40  59 S6        30.13F
PERRY          CLEAR     52  40  64 CALM      30.17S
LIVE OAK       CLEAR     54  36  50 SW6       30.16R
CROSS CITY     CLEAR     51  40  66 SW3       30.22S
LAKE CITY      FAIR      50  36  57 S3        30.15S
GAINESVILLE    CLEAR     50  34  54 SW3       30.19R
WILLISTON      CLEAR     54  36  50 S5        30.18R
PALATKA        FAIR      48  39  71 CALM      30.17R
MAYPORT NAS    PTCLDY    51  37  58 SW5       30.13R
JACKSONVILLE   PTCLDY    53  37  54 SW6       30.13R
JAX NAS        PTCLDY    59  33  37 SW7       30.15R
JAX CECIL      CLEAR     48  39  71 CALM      30.14S
ST AUGUSTINE   CLEAR     54  36  50 SW5       30.16R
PALM COAST     CLEAR     52  37  58 CALM      30.15S

STATION/POSITION SKY/WX   TEMP    WIND        PRES    WAVE   SWELL
                          AIR SEA DIR/SP/G            HT/PER HT/PER
                          (F)     (DEG/KT/KT) (MB)    (FT/S) (FT/S)
SHELL POINT      NOT AVBL
KEATON BEACH               56     230/  6/  6 1021.0F
CEDAR KEY                  54     230/  3/  4 1022.4F
FERNANDINA                 57 58  230/  2/  5 1021.0R
30.7N   81.3W                 60                N/A     2/11
MAYPORT                    58 62  240/  6/  7 1020.7R
31.4N   80.9W              58 61  200/ 16/ 17 1019.3R   1/ 3
ST AUGUSTINE               56 62  230/  4/  5 1021.4R

$$
FLZ040-043>046-052-053-057-058-063-144-120000-
INTERIOR CENTRAL FLORIDA

CITY           SKY/WX    TMP DP  RH WIND       PRES   REMARKS
OCALA          CLEAR     54  36  50 SW7       30.18R
LEESBURG       CLEAR     56  35  45 CALM      30.17S
SANFORD        CLEAR     55  27  34 W7        30.17R
ORLANDO EXEC   CLEAR     59  30  33 W3        30.17R
ORLANDO INTL   CLEAR     54  30  40 W7        30.18R
KISSIMMEE      CLEAR     53  37  54 CALM      30.18S
WINTER HAVEN   CLEAR     58  33  39 W5        30.19R
LAKELAND       CLEAR     57  30  35 CALM      30.18S
BARTOW         FAIR      57  30  35 W3        30.18S
SEBRING        FAIR      59  31  34 NW3       30.18S

$$
FLZ041-047-054-059-064-141-147-120000-
EAST CENTRAL FLORIDA

CITY           SKY/WX    TMP DP  RH WIND       PRES   REMARKS
ORMOND BEACH   CLEAR     50  37  62 CALM      30.16R
DAYTONA BEACH  PTCLDY    52  37  56 S3        30.17R
DELAND         CLEAR     55  36  47 SW3       30.16R
NEW SMYRNA BEA CLEAR     54  32  43 CALM      30.17R
JFK SPACE CTR  CLEAR     47  46  93 CALM      30.15S
TITUSVILLE     CLEAR     59  37  44 CALM      30.16S
CAPE CANAVERAL CLEAR     52  39  61 S3        30.15R
PATRICK AFB    CLEAR     58  31  35 CALM      30.16R
MELBOURNE      CLEAR     57  35  43 CALM      30.16S
VERO BEACH     CLEAR     52  42  69 CALM      30.17R
FT PIERCE      CLEAR     50  45  83 CALM      30.16S
STUART         CLEAR     59  45  58 N5        30.18R

STATION/POSITION SKY/WX   TEMP    WIND        PRES    WAVE   SWELL
                          AIR SEA DIR/SP/G            HT/PER HT/PER
                          (F)     (DEG/KT/KT) (MB)    (FT/S) (FT/S)
28.5N   80.2W              60 77  280/  6/ 10 1021.3
TRIDENT PIER               54 71   50/  1/  1 1022.8R
28.4N   80.5W                 70                N/A     1/ 8
27.5N   80.2W                 71                N/A     2/ 9

$$
FLZ050-056-061-142-242-148-248-149-249-151-251-155-255-
160-260-120000-
WEST CENTRAL FLORIDA

CITY           SKY/WX    TMP DP  RH WIND       PRES   REMARKS
CRYSTAL RIVER  FAIR      46  37  71 CALM      30.19S
INVERNESS      FAIR      48  32  53 CALM      30.19S
BROOKSVILLE    CLEAR     49  37  63 W5        30.20S
CLEARWATER AIR FAIR      52  43  71 CALM      30.19S
ST PETE CLEARW CLEAR     53  43  68 NW5       30.19S
TAMPA INTL     PTCLDY    57  42  57 NW5       30.20R
TAMPA EXEC     CLEAR     50  32  50 CALM      30.20R
PLANT CITY     CLEAR     57  32  38 NW6       30.20S
MACDILL AFB    CLEAR     54  43  65 N3        30.19S
PETER O KNIGHT   N/A     55  43  62 CALM      30.19S
ST PETERSBURG  CLEAR     59  43  55 N6        30.17S
SARASOTA       CLEAR     56  46  69 CALM      30.18S
VENICE         NOT AVBL

STATION/POSITION SKY/WX   TEMP    WIND        PRES    WAVE   SWELL
                          AIR SEA DIR/SP/G            HT/PER HT/PER
                          (F)     (DEG/KT/KT) (MB)    (FT/S) (FT/S)
27.3N   84.2W                 75                N/A     3/ 7
CLEARWATER BEACH           56 62  360/  3/  4 1022.6S
MIDDLE TAMPA BAY           60     340/  9/ 10 1022.5R
VENICE                     60 69  350/ 10/ 12 1022.3S

$$
FLZ066-069-070-075>078-162-262-165-265-120000-
SOUTHWEST FLORIDA AND KEYS

CITY           SKY/WX    TMP DP  RH WIND       PRES   REMARKS
PUNTA GORDA    CLEAR     60  37  42 NW5       30.19R
FT MYERS       CLEAR     60  41  49 NW6       30.17R
SOUTHWEST INTL CLEAR     59  42  53 CALM      30.17S
NAPLES         CLEAR     61  45  55 NW5       30.17S
MARCO ISLAND   CLEAR     59  47  64 NW6       30.18S
IMMOKALEE      FAIR      55  45  67 CALM      30.18S
MARATHON       CLEAR     63  43  48 N8        30.16S
KEY WEST NAS   PTCLDY    62  51  67 N13       30.17S
KEY WEST INTL  CLEAR     63  48  58 N10       30.17S

STATION/POSITION SKY/WX   TEMP    WIND        PRES    WAVE   SWELL
                          AIR SEA DIR/SP/G            HT/PER HT/PER
                          (F)     (DEG/KT/KT) (MB)    (FT/S) (FT/S)
NAPLES                        69  330/  9/ 11 1021.4S
DRY TORTUGAS               66      20/ 11/ 12 1021.5F
SAND KEY                   64                 1022.0R
MOLASSES REEF              64 75  350/ 11/ 13 1021.3R

$$
FLZ067-068-071>074-168-172>174-120000-
SOUTHEAST FLORIDA

CITY           SKY/WX    TMP DP  RH WIND       PRES   REMARKS
W PALM BEACH   CLEAR     61  44  53 N3        30.16R
BOCA RATON     CLEAR    N/A N/A N/A VRB3      30.15S
FT LAUDER-EXEC CLEAR     61  32  33 NW3       30.16R
FT LAUDERDALE  PTCLDY    61  31  32 NW6       30.15R
POMPANO BEACH  CLEAR     61  34  36 W7        30.15S
PEMBROKE PINES CLEAR     60  30  32 NW6       30.17R
OPA LOCKA      CLEAR     60  32  34 N5        30.16R
MIAMI          PTCLDY    63  35  35 W5        30.16R
WEST KENDALL   CLEAR     53  36  52 NW6       30.16R
HOMESTEAD      CLEAR     57  35  44 NW7       30.15R

STATION/POSITION SKY/WX   TEMP    WIND        PRES    WAVE   SWELL
                          AIR SEA DIR/SP/G            HT/PER HT/PER
                          (F)     (DEG/KT/KT) (MB)    (FT/S) (FT/S)
PORT EVERGLADES            65     300/  8/ 10 1020.7F
VIRGINIA KEY               64 72  330/  2/  3 1020.6S
LAKE WORTH                 63 76  330/  6/  7 1021.8F
FOWEY ROCKS                66 77  330/  7/  8 1021.5R
SETTLEMENT POINT           66      20/  9/ 11 1020.5S

$$




USA.gov is the U.S. government's official web portal to all federal, state and local government web resources and services.